QPF
0.00 0.00 0.00 0.00 0.00 0.00 0.00 0.00 0.00 0.00 0.00 0.00 0.00 0.00 0.00 0.00 0.00 0.00 0.00 0.00 0.00 0.00 0.00 0.00 0.00 0.00 0.00 0.00 0.00 0.00 0.00 0.00 0.00 0.00 0.00 0.01 0.03 0.04 0.00 0.00 0.00 0.00 0.00 0.10
0.00 0.00 0.00 0.00 0.00 0.00 0.00 0.00 0.00 0.00 0.00 0.00 0.00 0.00 0.00 0.00 0.00 0.00 0.00 0.00 0.00 0.00 0.00 0.00 0.00 0.00 0.00 0.00 0.00 0.00 0.00 0.00 0.00 0.00 0.00 0.00 0.00 0.01 0.00 0.01 0.01 0.01 0.05 0.06
0.00 0.00 0.00 0.00 0.00 0.00 0.00 0.00 0.00 0.00 0.00 0.00 0.00 0.00 0.00 0.00 0.00 0.00 0.00 0.00 0.00 0.00 0.00 0.00 0.00 0.00 0.00 0.00 0.00 0.00 0.00 0.00 0.00 0.01 0.02 0.00 0.00 0.01 0.02 0.04 0.08 0.08 0.05 0.02
0.00 0.00 0.00 0.00 0.00 0.00 0.00 0.00 0.00 0.00 0.00 0.00 0.00 0.00 0.00 0.00 0.00 0.00 0.00 0.00 0.00 0.00 0.00 0.00 0.00 0.00 0.00 0.00 0.00 0.00 0.00 0.00 0.01 0.03 0.03 0.00 0.00 0.00 0.02 0.10 0.11 0.10 0.05 0.02
0.00 0.00 0.00 0.00 0.00 0.00 0.00 0.00 0.00 0.00 0.00 0.00 0.00 0.00 0.00 0.00 0.00 0.00 0.00 0.00 0.00 0.00 0.00 0.00 0.00 0.00 0.00 0.00 0.00 0.01 0.04 0.03 0.01 0.01 0.02 0.01 0.00 0.01 0.01 0.02 0.02 0.03 0.03 0.03
0.00 0.00 0.00 0.00 0.00 0.00 0.00 0.00 0.00 0.00 0.00 0.00 0.00 0.00 0.00 0.00 0.00 0.00 0.00 0.00 0.00 0.00 0.00 0.00 0.00 0.00 0.00 0.00 0.00 0.00 0.01 0.02 0.01 0.00 0.00 0.00 0.00 0.00 0.00 0.00 0.01 0.01 0.02 0.02
0.00 0.00 0.00 0.00 0.00 0.00 0.00 0.00 0.00 0.00 0.00 0.00 0.00 0.00 0.00 0.00 0.00 0.00 0.00 0.00 0.00 0.00 0.00 0.00 0.00 0.00 0.00 0.00 0.00 0.00 0.00 0.00 0.00 0.00 0.00 0.00 0.00 0.00 0.00 0.00 0.00 0.00 0.00 0.01
0.00 0.00 0.00 0.00 0.00 0.00 0.00 0.00 0.00 0.00 0.00 0.00 0.00 0.00 0.00 0.00 0.00 0.00 0.00 0.00 0.00 0.00 0.00 0.00 0.00 0.00 0.00 0.00 0.00 0.00 0.00 0.00 0.00 0.00 0.00 0.00 0.00 0.00 0.00 0.00 0.00 0.01 0.01 0.01
0.00 0.00 0.00 0.00 0.00 0.00 0.00 0.00 0.00 0.00 0.00 0.00 0.00 0.00 0.00 0.00 0.00 0.00 0.00 0.00 0.00 0.00 0.00 0.00 0.00 0.00 0.00 0.00 0.00 0.00 0.00 0.00 0.00 0.00 0.00 0.00 0.00 0.00 0.00 0.00 0.00 0.00 0.01 0.02
0.00 0.00 0.00 0.00 0.00 0.00 0.00 0.00 0.00 0.00 0.00 0.00 0.00 0.00 0.00 0.00 0.00 0.00 0.00 0.00 0.00 0.00 0.00 0.00 0.00 0.00 0.00 0.00 0.00 0.00 0.00 0.00 0.00 0.00 0.00 0.00 0.00 0.00 0.00 0.00 0.00 0.01 0.02 0.03
0.00 0.00 0.00 0.00 0.00 0.00 0.00 0.00 0.00 0.00 0.00 0.00 0.00 0.00 0.00 0.00 0.00 0.00 0.00 0.00 0.00 0.00 0.00 0.00 0.00 0.00 0.00 0.00 0.00 0.00 0.00 0.00 0.00 0.00 0.00 0.00 0.00 0.00 0.00 0.00 0.00 0.00 0.01 0.01
0.00 0.00 0.00 0.00 0.00 0.00 0.00 0.00 0.00 0.00 0.00 0.00 0.00 0.00 0.00 0.00 0.00 0.00 0.00 0.00 0.00 0.00 0.00 0.00 0.00 0.00 0.00 0.00 0.00 0.00 0.00 0.00 0.00 0.00 0.00 0.00 0.00 0.00 0.00 0.00 0.00 0.00 0.00 0.00
0.00 0.00 0.00 0.00 0.00 0.00 0.00 0.00 0.00 0.00 0.00 0.00 0.00 0.00 0.00 0.00 0.00 0.00 0.00 0.00 0.00 0.00 0.00 0.00 0.00 0.00 0.00 0.01 0.00 0.00 0.00 0.00 0.00 0.00 0.00 0.00 0.00 0.00 0.00 0.00 0.00 0.00 0.00 0.00
0.00 0.00 0.00 0.00 0.00 0.00 0.00 0.00 0.00 0.00 0.00 0.00 0.00 0.00 0.00 0.00 0.00 0.00 0.00 0.00 0.00 0.00 0.00 0.00 0.01 0.03 0.03 0.04 0.01 0.00 0.00 0.00 0.00 0.00 0.00 0.00 0.00 0.00 0.00 0.00 0.00 0.00 0.00 0.00
0.00 0.00 0.00 0.00 0.00 0.00 0.00 0.00 0.00 0.00 0.00 0.00 0.00 0.00 0.00 0.00 0.00 0.00 0.00 0.00 0.00 0.00 0.00 0.00 0.01 0.01 0.02 0.03 0.02 0.01 0.00 0.00 0.00 0.00 0.00 0.00 0.00 0.00 0.00 0.00 0.00 0.00 0.00 0.00
0.00 0.00 0.00 0.00 0.00 0.00 0.00 0.00 0.00 0.00 0.00 0.00 0.00 0.00 0.00 0.00 0.00 0.00 0.00 0.00 0.00 0.00 0.00 0.00 0.00 0.00 0.00 0.00 0.01 0.01 0.02 0.02 0.01 0.00 0.00 0.00 0.00 0.00 0.00 0.00 0.00 0.00 0.00 0.00
0.00 0.00 0.00 0.00 0.00 0.01 0.01 0.00 0.00 0.00 0.00 0.00 0.00 0.00 0.00 0.00 0.00 0.00 0.00 0.00 0.00 0.00 0.00 0.00 0.00 0.00 0.00 0.01 0.03 0.05 0.06 0.07 0.07 0.05 0.02 0.01 0.01 0.00 0.00 0.00 0.00 0.00 0.00 0.00
0.00 0.00 0.00 0.00 0.01 0.01 0.00 0.00 0.00 0.00 0.00 0.00 0.00 0.00 0.00 0.00 0.00 0.00 0.00 0.00 0.00 0.00 0.00 0.00 0.00 0.00 0.00 0.01 0.02 0.02 0.02 0.02 0.03 0.04 0.05 0.05 0.05 0.04 0.02 0.00 0.00 0.00 0.00 0.00
0.00 0.00 0.00 0.00 0.00 0.00 0.00 0.00 0.00 0.00 0.00 0.00 0.00 0.00 0.00 0.00 0.00 0.00 0.00 0.00 0.00 0.00 0.00 0.00 0.00 0.00 0.00 0.00 0.00 0.00 0.00 0.00 0.00 0.00 0.01 0.03 0.02 0.03 0.03 0.02 0.01 0.00 0.00 0.00
0.00 0.00 0.00 0.00 0.00 0.00 0.00 0.00 0.00 0.00 0.00 0.00 0.00 0.00 0.00 0.00 0.00 0.00 0.00 0.00 0.00 0.00 0.00 0.00 0.00 0.00 0.00 0.00 0.00 0.00 0.00 0.00 0.00 0.00 0.00 0.01 0.01 0.02 0.02 0.03 0.02 0.02 0.01 0.00
0.00 0.00 0.00 0.00 0.00 0.00 0.00 0.00 0.00 0.00 0.00 0.00 0.00 0.00 0.00 0.00 0.00 0.00 0.00 0.00 0.00 0.00 0.00 0.00 0.00 0.00 0.00 0.00 0.00 0.00 0.00 0.00 0.00 0.00 0.00 0.01 0.02 0.02 0.01 0.02 0.02 0.01 0.01 0.00
0.00 0.00 0.00 0.00 0.00 0.00 0.00 0.00 0.00 0.00 0.00 0.00 0.00 0.00 0.00 0.00 0.00 0.00 0.00 0.00 0.00 0.00 0.00 0.00 0.00 0.00 0.00 0.00 0.00 0.00 0.00 0.00 0.00 0.00 0.00 0.00 0.01 0.03 0.02 0.02 0.02 0.02 0.02 0.00
0.00 0.00 0.00 0.00 0.00 0.00 0.00 0.00 0.00 0.00 0.00 0.00 0.00 0.00 0.00 0.00 0.00 0.00 0.00 0.00 0.00 0.00 0.00 0.00 0.00 0.00 0.00 0.00 0.00 0.00 0.00 0.00 0.00 0.00 0.00 0.00 0.00 0.00 0.01 0.02 0.01 0.01 0.01 0.01
0.00 0.00 0.00 0.00 0.00 0.00 0.00 0.00 0.00 0.00 0.00 0.00 0.00 0.00 0.00 0.00 0.00 0.00 0.00 0.00 0.00 0.00 0.00 0.00 0.00 0.00 0.00 0.00 0.00 0.00 0.00 0.00 0.00 0.00 0.00 0.00 0.00 0.00 0.00 0.01 0.01 0.01 0.00 0.00
0.00 0.00 0.00 0.00 0.00 0.00 0.00 0.00 0.00 0.00 0.00 0.00 0.00 0.00 0.00 0.00 0.00 0.00 0.00 0.00 0.00 0.00 0.00 0.00 0.00 0.00 0.00 0.00 0.00 0.00 0.00 0.00 0.00 0.00 0.00 0.00 0.00 0.00 0.00 0.00 0.01 0.01 0.01 0.01
0.00 0.00 0.00 0.00 0.00 0.00 0.00 0.00 0.00 0.00 0.00 0.00 0.00 0.00 0.00 0.00 0.00 0.00 0.00 0.00 0.00 0.00 0.00 0.00 0.00 0.00 0.00 0.00 0.00 0.00 0.00 0.00 0.00 0.00 0.00 0.00 0.00 0.00 0.00 0.00 0.01 0.01 0.01 0.00
MSLP
1010.10 1010.87 1010.38 1009.69 1009.65 1009.40 1009.11 1008.56 1007.74 1006.93 1005.96 1005.55 1005.35 1004.67 1004.69 1004.39 1004.13 1003.83 1003.55 1003.43 1003.04 1002.84 1002.30 1002.38 1002.96 1003.17 1003.05 1003.53 1004.68 1005.54 1006.38 1007.33 1008.05 1008.83 1009.59 1010.43 1011.04 1011.84 1012.36 1012.59 1012.56 1012.64 1012.95 1013.36
1010.42 1009.32 1009.04 1009.22 1009.03 1008.84 1008.61 1008.14 1007.38 1006.80 1006.27 1005.98 1005.71 1004.91 1004.94 1004.81 1003.98 1003.21 1002.87 1003.09 1003.19 1003.23 1002.84 1003.58 1003.53 1003.87 1004.24 1004.40 1004.67 1005.58 1006.40 1007.10 1007.87 1008.59 1009.43 1010.10 1010.96 1012.10 1012.78 1013.16 1013.33 1013.52 1013.57 1013.74
1008.53 1007.55 1007.94 1007.94 1007.77 1007.81 1007.44 1007.21 1006.95 1006.65 1006.61 1006.22 1006.09 1004.23 1004.70 1004.12 1003.26 1002.75 1002.35 1002.97 1003.51 1003.69 1004.02 1004.25 1004.41 1004.94 1005.16 1005.66 1005.82 1005.79 1006.23 1007.02 1007.91 1008.76 1009.74 1010.83 1011.54 1012.50 1013.34 1013.75 1013.90 1014.12 1014.39 1014.61
1007.69 1007.28 1007.23 1006.68 1006.70 1007.01 1006.26 1006.44 1006.43 1006.72 1007.11 1006.86 1006.84 1004.37 1005.03 1004.05 1002.66 1002.55 1003.25 1003.47 1003.68 1004.08 1004.56 1004.95 1005.55 1006.22 1006.62 1007.03 1006.84 1006.60 1006.62 1007.16 1007.87 1008.52 1009.34 1009.96 1010.69 1011.99 1012.71 1013.67 1014.21 1014.40 1014.78 1014.99
1005.56 1005.62 1005.87 1005.37 1005.12 1005.86 1005.39 1005.99 1006.45 1006.97 1007.25 1007.38 1007.27 1006.93 1004.56 1003.76 1002.73 1001.95 1002.94 1003.51 1003.75 1004.35 1004.98 1005.69 1006.35 1007.01 1007.44 1007.49 1007.75 1007.62 1007.54 1007.79 1008.15 1008.58 1009.01 1009.88 1010.84 1011.41 1012.35 1013.46 1014.32 1014.74 1015.15 1015.16
1005.69 1005.49 1005.21 1004.79 1004.86 1005.16 1005.51 1006.06 1006.75 1007.38 1007.84 1007.24 1007.33 1007.28 1004.72 1003.68 1003.04 1002.68 1002.77 1003.51 1003.82 1004.75 1005.21 1005.91 1006.33 1006.92 1007.54 1007.86 1008.25 1008.61 1008.52 1008.69 1008.89 1009.05 1009.35 1009.63 1010.42 1011.42 1012.52 1013.51 1014.05 1014.80 1015.09 1015.58
1005.84 1004.67 1004.81 1005.17 1005.21 1005.21 1005.64 1006.58 1007.87 1008.33 1008.41 1006.80 1006.62 1006.18 1005.02 1003.06 1002.51 1002.29 1002.86 1003.55 1004.17 1004.94 1005.51 1006.03 1006.50 1007.27 1007.87 1008.20 1008.65 1009.03 1009.43 1009.65 1009.64 1009.76 1010.02 1010.55 1010.83 1011.47 1012.33 1013.04 1013.72 1014.54 1015.03 1015.65
1005.05 1004.03 1004.01 1003.32 1003.28 1004.15 1004.92 1006.16 1007.23 1008.08 1008.24 1007.29 1006.14 1004.92 1002.83 1002.31 1002.47 1002.68 1003.05 1003.77 1004.56 1005.33 1005.76 1006.11 1006.65 1007.37 1008.14 1008.67 1009.12 1009.52 1009.82 1010.12 1010.29 1010.43 1010.79 1011.13 1011.55 1011.87 1012.45 1013.04 1013.75 1014.22 1015.10 1015.73
1004.06 1003.11 1001.95 1001.58 1002.06 1003.64 1004.05 1004.70 1006.27 1007.57 1007.76 1007.63 1006.35 1004.15 1003.11 1002.43 1002.79 1002.88 1003.27 1004.06 1004.84 1005.28 1005.60 1005.94 1006.53 1007.08 1007.76 1008.24 1008.82 1009.55 1010.31 1010.67 1010.72 1010.88 1011.14 1011.33 1011.78 1012.23 1012.86 1013.66 1014.02 1014.74 1015.13 1015.77
1003.24 1002.83 1001.41 1000.69 1001.24 1002.06 1002.70 1004.43 1006.04 1007.15 1008.08 1007.72 1006.53 1005.09 1003.67 1003.31 1003.27 1003.40 1003.77 1004.00 1004.33 1004.72 1005.14 1005.57 1006.12 1006.60 1007.14 1007.77 1008.50 1009.06 1009.71 1010.61 1010.94 1011.22 1011.39 1011.63 1011.80 1012.37 1012.84 1013.50 1014.03 1014.74 1015.38 1015.77
1003.61 1003.42 1001.82 1000.96 1000.80 1001.18 1002.95 1003.76 1004.89 1006.31 1006.89 1007.32 1006.94 1004.95 1002.95 1003.31 1003.52 1003.90 1004.17 1004.31 1004.50 1004.73 1005.15 1004.95 1005.53 1005.90 1006.37 1007.30 1008.36 1009.15 1009.87 1010.52 1011.21 1011.59 1011.84 1012.21 1012.50 1012.86 1013.21 1013.45 1014.21 1014.61 1015.29 1015.57
1002.58 1003.09 1002.52 1001.36 1000.99 1001.07 1002.04 1003.17 1004.51 1006.05 1006.56 1006.68 1006.48 1005.02 1003.35 1003.33 1003.47 1003.85 1004.32 1004.76 1004.65 1004.90 1005.00 1005.04 1005.08 1005.65 1006.45 1007.15 1007.90 1008.72 1009.52 1010.31 1010.81 1011.42 1011.93 1012.35 1012.67 1013.01 1013.57 1013.84 1014.29 1014.98 1015.59 1015.94
1003.19 1003.44 1003.65 1002.85 1002.63 1001.53 1002.26 1003.14 1004.14 1005.22 1006.05 1006.37 1006.58 1004.29 1003.08 1003.12 1003.91 1004.28 1004.51 1004.66 1004.93 1005.28 1005.44 1005.50 1005.99 1006.33 1006.87 1007.25 1007.74 1008.23 1009.00 1009.69 1010.27 1011.06 1011.85 1012.27 1012.80 1013.41 1013.52 1013.88 1014.54 1015.27 1015.63 1016.23
1004.57 1004.21 1003.73 1003.32 1002.66 1003.13 1003.74 1003.97 1004.24 1005.59 1006.15 1006.33 1005.31 1004.71 1004.31 1004.82 1004.94 1005.13 1005.23 1005.27 1005.22 1005.52 1005.76 1005.85 1006.27 1007.12 1007.55 1007.72 1007.90 1008.11 1008.22 1008.87 1009.29 1009.95 1010.88 1011.82 1012.12 1012.34 1013.55 1014.18 1014.68 1015.37 1015.75 1016.31
1005.94 1005.32 1004.99 1004.15 1003.63 1004.28 1005.44 1005.48 1005.20 1005.68 1006.26 1006.43 1006.02 1005.91 1004.54 1005.58 1005.81 1006.64 1006.58 1006.51 1006.41 1006.95 1007.08 1007.27 1007.52 1007.98 1008.27 1008.52 1008.58 1008.75 1008.73 1008.84 1009.30 1009.42 1010.10 1010.97 1011.57 1011.77 1012.42 1013.10 1013.66 1015.01 1015.59 1016.19
1006.80 1006.99 1006.44 1005.42 1004.67 1004.91 1005.39 1005.39 1005.56 1005.71 1005.94 1005.88 1006.23 1005.52 1005.66 1006.71 1007.29 1007.72 1008.04 1008.29 1008.88 1009.10 1008.84 1008.89 1009.33 1009.61 1009.60 1009.68 1009.52 1009.35 1009.48 1009.36 1009.21 1009.82 1009.73 1010.13 1010.70 1011.09 1012.02 1012.45 1012.96 1013.69 1015.31 1015.58
1007.27 1007.52 1007.42 1006.65 1006.11 1005.99 1005.79 1004.94 1005.25 1004.94 1005.03 1005.73 1006.29 1006.62 1007.19 1007.58 1008.25 1008.87 1009.38 1009.61 1010.09 1010.39 1010.48 1010.34 1010.29 1010.33 1010.55 1010.38 1010.22 1010.07 1009.83 1009.74 1009.06 1009.39 1009.30 1010.21 1011.26 1010.84 1011.95 1012.46 1013.07 1013.51 1014.26 1014.61
1007.63 1008.11 1008.49 1007.92 1007.31 1006.41 1004.43 1004.00 1004.02 1004.47 1004.99 1005.66 1006.47 1007.46 1008.20 1008.92 1009.52 1009.69 1010.09 1010.54 1010.90 1011.26 1011.15 1011.38 1011.09 1010.68 1010.63 1010.34 1010.24 1010.27 1010.20 1010.17 1009.82 1009.72 1009.44 1009.58 1010.39 1010.64 1011.36 1012.49 1012.87 1013.60 1013.80 1014.52
1007.68 1008.40 1008.55 1008.36 1007.62 1006.02 1004.95 1004.94 1004.81 1004.66 1006.63 1006.85 1007.30 1008.07 1008.54 1009.06 1009.57 1010.21 1010.38 1010.76 1010.96 1010.94 1011.11 1011.18 1011.29 1010.84 1010.15 1009.92 1009.56 1009.51 1009.61 1009.56 1009.47 1009.53 1009.50 1009.77 1009.89 1009.48 1010.60 1011.12 1012.21 1012.84 1013.19 1013.76
1008.01 1008.09 1008.84 1008.76 1007.89 1006.91 1005.63 1005.40 1005.28 1005.41 1007.17 1007.72 1008.05 1008.60 1009.04 1009.36 1010.02 1010.36 1010.20 1010.34 1010.48 1010.68 1010.74 1010.93 1010.98 1010.52 1010.24 1009.81 1009.43 1009.34 1009.02 1008.89 1009.02 1009.11 1008.85 1009.09 1009.32 1009.10 1009.28 1009.79 1010.76 1012.13 1012.25 1012.87
1007.60 1008.17 1008.09 1008.17 1007.90 1007.14 1005.93 1005.58 1005.68 1006.56 1007.87 1007.89 1008.19 1008.66 1009.14 1009.65 1009.96 1010.13 1010.24 1010.29 1010.29 1010.38 1010.32 1010.34 1010.26 1010.09 1009.82 1009.49 1009.35 1009.09 1008.71 1008.41 1008.17 1008.19 1008.35 1008.55 1008.59 1008.37 1008.37 1008.67 1009.51 1010.65 1011.64 1012.30
1005.56 1007.01 1007.45 1007.73 1007.40 1006.77 1005.31 1005.39 1006.17 1006.94 1007.29 1007.58 1007.94 1008.48 1008.92 1009.02 1009.30 1009.78 1010.26 1010.23 1010.21 1009.90 1009.54 1009.30 1009.22 1009.11 1008.69 1008.52 1008.50 1008.48 1008.19 1007.47 1007.13 1007.45 1007.55 1007.71 1007.68 1007.62 1007.72 1008.19 1008.36 1009.42 1010.94 1012.06
1004.84 1004.61 1005.52 1006.10 1005.92 1005.52 1005.12 1005.29 1005.75 1006.21 1006.81 1007.17 1007.52 1008.00 1008.45 1008.92 1009.56 1009.76 1009.81 1009.67 1009.35 1009.01 1008.67 1008.46 1008.38 1008.05 1007.69 1007.54 1007.50 1007.57 1007.16 1007.13 1006.84 1006.81 1006.87 1006.80 1006.94 1006.94 1007.10 1007.13 1007.66 1009.37 1010.09 1011.34
1003.80 1003.87 1004.88 1005.15 1005.46 1005.21 1005.02 1005.13 1005.47 1005.72 1006.28 1006.71 1007.08 1007.49 1007.88 1008.57 1009.01 1009.22 1009.25 1009.09 1008.86 1008.40 1008.12 1007.77 1007.37 1007.05 1006.77 1006.41 1006.28 1006.24 1006.16 1006.16 1006.34 1007.03 1006.97 1006.66 1006.43 1006.18 1006.83 1006.86 1007.12 1007.65 1008.52 1009.78
1003.58 1003.87 1004.26 1004.64 1004.85 1004.99 1004.81 1004.78 1004.94 1005.33 1005.88 1006.27 1006.60 1007.17 1007.59 1008.17 1008.75 1009.07 1009.38 1009.19 1008.87 1008.40 1008.06 1007.86 1007.53 1006.90 1006.21 1005.63 1005.30 1005.13 1005.15 1005.29 1005.60 1005.97 1006.47 1006.64 1006.47 1006.31 1006.43 1006.62 1006.36 1006.49 1006.52 1006.91
1003.28 1003.46 1004.23 1004.30 1004.32 1004.49 1004.60 1004.52 1004.67 1005.21 1005.74 1006.13 1006.59 1006.96 1007.30 1007.81 1008.26 1008.56 1008.78 1008.75 1008.61 1008.39 1008.09 1007.63 1007.11 1006.50 1005.78 1005.07 1004.38 1004.14 1004.11 1004.32 1004.65 1005.11 1005.58 1005.96 1006.21 1006.29 1006.09 1006.29 1006.52 1006.35 1006.38 1005.85
Thickness
5703 5680 5680 5705 5710 5713 5711 5709 5710 5724 5743 5736 5730 5737 5743 5753 5756 5759 5764 5766 5768 5774 5786 5788 5786 5784 5785 5782 5772 5765 5758 5751 5745 5736 5729 5722 5716 5711 5706 5704 5701 5698 5694 5690
5682 5682 5705 5710 5711 5707 5704 5700 5705 5721 5735 5732 5718 5725 5734 5740 5751 5759 5760 5758 5759 5763 5771 5770 5775 5773 5771 5770 5769 5762 5755 5747 5740 5734 5725 5720 5713 5702 5696 5693 5690 5687 5684 5681
5686 5706 5711 5709 5709 5702 5704 5700 5702 5702 5713 5717 5705 5717 5717 5740 5748 5753 5758 5753 5751 5755 5756 5760 5763 5759 5758 5754 5752 5755 5751 5744 5734 5726 5715 5706 5700 5691 5683 5680 5677 5674 5672 5668
5688 5706 5701 5706 5701 5702 5690 5712 5709 5698 5687 5673 5698 5677 5704 5725 5735 5741 5731 5740 5742 5747 5748 5751 5747 5741 5737 5735 5739 5743 5743 5737 5730 5723 5713 5710 5703 5692 5684 5673 5667 5664 5659 5657
5695 5701 5697 5698 5704 5707 5698 5705 5693 5688 5681 5669 5672 5655 5698 5717 5722 5739 5726 5735 5738 5738 5737 5734 5731 5727 5725 5725 5723 5726 5727 5724 5720 5716 5711 5703 5694 5688 5678 5666 5658 5653 5648 5646
5685 5703 5699 5702 5708 5704 5700 5690 5682 5678 5666 5649 5661 5657 5672 5693 5710 5720 5727 5732 5731 5727 5728 5725 5726 5722 5717 5715 5711 5709 5710 5709 5707 5705 5701 5698 5689 5678 5668 5658 5652 5643 5639 5632
5674 5681 5693 5691 5675 5688 5682 5668 5635 5630 5629 5650 5678 5660 5672 5707 5715 5721 5717 5715 5717 5718 5716 5716 5717 5713 5708 5706 5701 5698 5693 5691 5690 5690 5687 5680 5676 5667 5657 5650 5643 5634 5629 5622
5646 5653 5679 5697 5685 5678 5668 5656 5628 5615 5619 5645 5676 5654 5686 5712 5713 5715 5717 5710 5705 5701 5704 5708 5709 5702 5696 5693 5690 5686 5682 5678 5675 5672 5668 5663 5657 5653 5646 5639 5631 5625 5615 5608
5645 5655 5690 5695 5692 5676 5666 5652 5665 5641 5649 5635 5648 5676 5696 5701 5699 5703 5700 5694 5692 5692 5694 5697 5697 5692 5690 5687 5683 5676 5669 5663 5660 5656 5652 5648 5641 5634 5627 5618 5614 5606 5601 5593
5655 5638 5675 5688 5685 5681 5671 5669 5632 5628 5613 5609 5638 5649 5660 5675 5681 5685 5682 5686 5689 5690 5689 5687 5685 5685 5684 5679 5671 5665 5658 5649 5643 5636 5634 5630 5626 5619 5612 5605 5598 5590 5582 5577
5645 5634 5653 5672 5662 5662 5652 5647 5645 5637 5626 5605 5609 5629 5682 5675 5675 5670 5673 5677 5677 5681 5679 5681 5678 5678 5678 5671 5660 5650 5640 5632 5624 5618 5614 5609 5604 5599 5594 5590 5581 5576 5568 5565
5649 5631 5627 5649 5669 5671 5657 5646 5638 5609 5621 5622 5619 5628 5676 5672 5673 5667 5659 5658 5662 5661 5662 5665 5665 5661 5656 5652 5647 5637 5628 5618 5613 5605 5598 5592 5587 5582 5575 5571 5566 5558 5552 5548
5633 5609 5603 5621 5632 5651 5642 5642 5643 5633 5621 5608 5596 5626 5676 5673 5658 5653 5651 5651 5651 5651 5651 5650 5648 5644 5639 5634 5631 5628 5620 5612 5602 5593 5584 5578 5571 5563 5560 5556 5548 5540 5537 5532
5602 5599 5606 5597 5612 5620 5604 5614 5620 5611 5585 5594 5610 5630 5647 5642 5638 5636 5635 5634 5640 5642 5641 5638 5632 5623 5618 5615 5612 5611 5612 5605 5599 5588 5578 5567 5562 5559 5545 5538 5532 5524 5520 5517
5582 5586 5593 5607 5615 5604 5590 5590 5599 5593 5593 5582 5605 5602 5637 5625 5619 5601 5608 5613 5615 5613 5613 5614 5609 5603 5599 5592 5588 5584 5586 5590 5585 5579 5570 5558 5550 5546 5538 5529 5523 5508 5504 5501
5570 5562 5574 5583 5600 5595 5582 5589 5592 5594 5592 5594 5594 5600 5618 5595 5586 5586 5588 5587 5576 5573 5581 5581 5577 5572 5570 5566 5565 5562 5557 5558 5562 5559 5558 5551 5536 5534 5524 5519 5512 5504 5490 5491
5560 5560 5555 5560 5576 5567 5549 5581 5585 5593 5595 5586 5568 5587 5576 5576 5572 5566 5563 5563 5553 5543 5541 5545 5546 5544 5540 5541 5542 5542 5542 5541 5544 5543 5541 5534 5523 5519 5506 5502 5496 5493 5485 5481
5542 5544 5539 5540 5547 5534 5579 5589 5588 5582 5585 5574 5567 5559 5559 5553 5546 5545 5541 5535 5529 5524 5520 5515 5517 5518 5518 5521 5521 5521 5520 5519 5521 5523 5526 5527 5517 5515 5499 5486 5484 5477 5476 5471
5531 5524 5519 5530 5532 5549 5562 5562 5565 5566 5543 5548 5546 5541 5540 5537 5532 5519 5520 5516 5513 5511 5504 5500 5495 5497 5503 5503 5506 5509 5509 5507 5507 5506 5508 5504 5505 5511 5497 5488 5474 5471 5471 5468
5512 5516 5510 5502 5512 5524 5537 5543 5551 5547 5511 5523 5522 5516 5515 5516 5492 5495 5502 5499 5495 5492 5487 5478 5475 5479 5480 5482 5484 5487 5493 5492 5491 5489 5493 5490 5487 5492 5493 5487 5476 5461 5464 5460
5497 5488 5494 5491 5488 5490 5522 5530 5531 5506 5494 5505 5506 5502 5498 5488 5485 5485 5485 5482 5479 5473 5471 5467 5464 5460 5463 5465 5462 5466 5472 5478 5474 5475 5473 5473 5478 5481 5483 5483 5476 5465 5454 5454
5505 5489 5483 5478 5474 5476 5514 5513 5503 5484 5485 5489 5489 5484 5480 5478 5474 5470 5464 5462 5458 5456 5456 5455 5449 5451 5452 5449 5445 5449 5456 5465 5466 5462 5462 5461 5464 5469 5472 5473 5474 5466 5448 5440
5481 5494 5479 5477 5469 5488 5493 5491 5494 5487 5479 5479 5477 5469 5465 5462 5459 5448 5444 5444 5445 5445 5445 5443 5435 5433 5435 5436 5429 5420 5434 5437 5443 5447 5447 5449 5452 5458 5460 5467 5467 5453 5445 5434
5490 5495 5466 5473 5474 5475 5475 5480 5478 5476 5472 5464 5458 5458 5455 5444 5425 5424 5428 5426 5428 5429 5424 5422 5416 5410 5408 5410 5409 5405 5400 5408 5415 5418 5422 5428 5435 5445 5443 5450 5455 5453 5447 5436
5462 5472 5463 5455 5467 5462 5464 5467 5467 5464 5457 5454 5449 5443 5434 5426 5419 5415 5406 5402 5400 5400 5397 5391 5386 5386 5386 5388 5387 5389 5388 5385 5386 5395 5398 5402 5413 5423 5428 5431 5442 5446 5451 5451
5455 5453 5429 5424 5455 5444 5449 5453 5449 5440 5438 5435 5430 5425 5422 5414 5403 5396 5388 5383 5381 5378 5377 5376 5374 5372 5372 5372 5375 5378 5378 5374 5373 5374 5377 5377 5389 5400 5411 5416 5421 5430 5438 5448